Content
SEND FEEDBACK

Daily
Averages
Monthly
Summary
Brazil

ARACAJU, SERGIPE


Home > South America > Brazil > Sergipe
Elevation: 30 feet     Latitude: 10 59S     Longitude: 037 04W

WEATHER
 
SELECT A DAY
Number of Records: 97,903;   Date Range: 6/30/96 - 12/17/14
 
SHARE

PRINT THIS DATA

[ ← Previous Day ]
WEATHER ALMANAC - JANUARY 31, 2013
[ Next Day → ]
[ °C ]   °F
Weather ElementAverageHighLow
Temperature81.4 °F87.8 °F (3:00 pm)77 °F (3:00 am)
Dewpoint70.5 °F71.6 °F (1:00 am)68 °F (9:00 am)
Humidity70 %83 % (3:00 am)55 % (3:00 pm)
Barometer29.89 in29.95 in (10:00 am)29.83 in (5:00 pm)
Wind Speed11.1 mph16.1 mph (1:00 pm)
Weather ElementAverage
Visibility6.2 mi
Wind DirectionESE (103.5 °)

Weather ElementTotal
Precipitation---
Cooling Degree Days17.4 (Base 65)
Growing Degree Days32.4 (Base 50)
Averaged from 23 records on January 31, 2013
WEATHER CONDITIONS BREAKOUT
WIND DIRECTION BREAKOUT
WEATHER BY HOUR - JANUARY 31, 2013
[ °C ]   °F
Local TimeTemperatureDewpointHumidityBarometerVisibilityWind DirectionWind SpeedGust SpeedPrecipitationEventsConditions
1:00 AM78.8 °F71.6 °F78 %29.92 in6.2 miEast (100°)8.1 mphPartly Cloudy
2:00 AM78.8 °F71.6 °F78 %29.92 in6.2 miEast (100°)8.1 mphScattered Clouds
3:00 AM77.0 °F71.6 °F83 %29.89 in6.2 miEast (100°)8.1 mphPartly Cloudy
4:00 AM77.0 °F71.6 °F83 %29.89 in6.2 miEast (100°)5.8 mphScattered Clouds
5:00 AM77.0 °F71.6 °F83 %29.89 in6.2 miESE (110°)5.8 mphScattered Clouds
6:00 AM77.0 °F69.8 °F78 %29.89 in6.2 miEast (100°)6.9 mphScattered Clouds
7:00 AM78.8 °F69.8 °F74 %29.89 in6.2 miEast (90°)6.9 mphScattered Clouds
8:00 AM80.6 °F69.8 °F70 %29.92 in6.2 miEast (90°)10.4 mphScattered Clouds
9:00 AM82.4 °F68.0 °F62 %29.92 in6.2 miEast (80°)12.7 mphScattered Clouds
10:00 AM84.2 °F68.0 °F58 %29.95 in6.2 miEast (90°)11.5 mphScattered Clouds
11:00 AM84.2 °F69.8 °F62 %29.92 in6.2 miEast (80°)12.7 mphPartly Cloudy
12:00 PM86.0 °F69.8 °F58 %29.92 in6.2 miESE (110°)15.0 mphPartly Cloudy
1:00 PM86.0 °F69.8 °F58 %29.92 in6.2 miESE (120°)16.1 mphPartly Cloudy
2:00 PM86.0 °F69.8 °F58 %29.89 in6.2 miESE (110°)15.0 mphPartly Cloudy
3:00 PM87.8 °F69.8 °F55 %29.86 in6.2 miESE (120°)16.1 mphPartly Cloudy
4:00 PM86.0 °F69.8 °F58 %29.86 inEast (100°)13.8 mphClear
5:00 PM84.2 °F69.8 °F62 %29.83 inESE (110°)13.8 mphClear
6:00 PM82.4 °F71.6 °F70 %29.83 in6.2 miESE (120°)12.7 mphPartly Cloudy
7:00 PM80.6 °F71.6 °F74 %29.86 inESE (110°)11.5 mphClear
8:00 PM80.6 °F71.6 °F74 %29.86 in6.2 miESE (110°)11.5 mphPartly Cloudy
9:00 PM78.8 °F71.6 °F78 %29.89 in6.2 miESE (110°)11.5 mphPartly Cloudy
10:00 PM78.8 °F71.6 °F78 %29.89 in6.2 miESE (110°)11.5 mphPartly Cloudy
11:00 PM78.8 °F71.6 °F78 %29.92 in6.2 miESE (110°)10.4 mphPartly Cloudy
Hourly data recorded from SBAR, located miles away from Aracaju, Sergipe







STORIES FROM OUR PARTNERS